CW1839 Weather Reports


Display with metric or nautical units.
time (UTC)temp
F
wind
direction
speed
MPH
gust
MPH
rain 1hr
in
rain 24hr
in
rain mn
in
humidity
%
barometer
mb
20180816140617 83 71 1.0 0.0 0.00 0.00 0.00 49 1006.7
20180816135002 84 31 3.0 0.0 0.00 0.00 0.00 50 1006.7
20180816133507 84 97 4.0 0.0 0.00 0.00 0.00 48 1006.7
20180816132010 84 78 2.0 0.0 0.00 0.00 0.00 49 1006.8
20180816130513 84 47 1.0 0.0 0.00 0.00 0.00 48 1006.8
20180816125114 84 119 0.0 0.0 0.00 0.00 0.00 46 1007.0
20180816123502 84 99 0.0 0.0 0.00 0.00 0.00 45 1007.1
20180816122005 84 79 0.0 0.0 0.00 0.00 0.00 44 1007.2
20180816120228 83 114 0.0 0.0 0.00 0.00 0.00 46 1007.3
20180816114716 83 144 0.0 0.0 0.00 0.00 0.00 49 1007.5
20180816113221 82 126 0.0 0.0 0.00 0.00 0.00 49 1007.6
20180816111720 82 127 0.0 0.0 0.00 0.00 0.00 50 1007.4
20180816110221 82 95 0.0 0.0 0.00 0.00 0.00 50 1007.4
20180816104628 82 178 0.0 0.0 0.00 0.00 0.00 49 1007.5
20180816103110 82 150 0.0 0.0 0.00 0.00 0.00 51 1007.3
20180816101624 82 96 0.0 0.0 0.00 0.00 0.00 52 1007.5
20180816100126 82 114 0.0 0.0 0.00 0.00 0.00 52 1007.7
20180816094622 81 155 0.0 0.0 0.00 0.00 0.00 52 1007.7
20180816093128 81 165 0.0 0.0 0.00 0.00 0.00 53 1007.8
20180816090004 80 151 0.0 0.0 0.00 0.00 0.00 54 1007.8
20180816084612 79 157 0.0 0.0 0.00 0.00 0.00 54 1007.6
20180816083002 79 178 0.0 0.0 0.00 0.00 0.00 54 1007.5
20180816081455 79 171 0.0 0.0 0.00 0.00 0.00 57 1007.3
20180816080012 78 112 0.0 0.0 0.00 0.00 0.00 56 1007.1
20180816074508 77 167 0.0 0.0 0.00 0.00 0.00 57 1007.0
20180816072959 76 168 0.0 0.0 0.00 0.00 0.00 60 1007.0
20180816071315 75 169 0.0 0.0 0.00 0.00 0.00 63 1007.2
20180816070021 74 227 0.0 0.0 0.00 0.00 0.00 63 1007.2
20180816064222 74 322 0.0 0.0 0.00 0.00 0.00 64 1007.1
20180816062712 73 322 0.0 0.0 0.00 0.00 0.00 66 1007.1
20180816061231 72 320 0.0 0.0 0.00 0.00 0.00 66 1007.0
20180816055719 71 322 0.0 0.0 0.00 0.00 0.00 69 1007.0
20180816054213 70 320 0.0 0.0 0.00 0.00 0.00 73 1007.0
20180816052611 69 322 0.0 0.0 0.00 0.00 0.00 75 1007.0
20180816051133 68 320 0.0 0.0 0.00 0.00 0.00 76 1007.0
20180816045623 67 322 0.0 0.0 0.00 0.00 0.00 76 1007.0
20180816044130 67 322 0.0 0.0 0.00 0.00 0.00 77 1007.0
20180816042516 66 320 0.0 0.0 0.00 0.00 0.00 77 1007.0
20180816041006 66 322 0.0 0.0 0.00 0.00 0.00 78 1006.9
20180816035509 66 322 0.0 0.0 0.00 0.00 0.00 79 1006.7
20180816033958 66 322 0.0 0.0 0.00 0.00 0.00 78 1006.6
20180816032503 66 325 0.0 0.0 0.00 0.00 0.00 77 1006.6
20180816031008 66 326 0.0 0.0 0.00 0.00 0.00 77 1006.6
20180816025612 66 329 0.0 0.0 0.00 0.00 0.00 76 1006.5
20180816024003 66 330 0.0 0.0 0.00 0.00 0.00 75 1006.5
20180816022504 66 330 0.0 0.0 0.00 0.00 0.00 74 1006.2
20180816021111 67 330 0.0 0.0 0.00 0.00 0.00 75 1006.2
20180816015503 67 330 0.0 0.0 0.00 0.00 0.00 75 1006.1
20180816014012 68 330 0.0 0.0 0.00 0.00 0.00 74 1006.1
20180816012228 68 330 0.0 0.0 0.00 0.00 0.00 72 1006.3
20180816010718 68 330 0.0 0.0 0.00 0.00 0.00 69 1006.3
20180816005224 68 330 0.0 0.0 0.00 0.00 0.00 70 1006.5
20180816003714 68 330 0.0 0.0 0.00 0.00 0.00 68 1006.5
20180816002211 68 332 0.0 0.0 0.00 0.00 0.00 69 1006.5
20180816000627 68 333 0.0 0.0 0.00 0.00 0.00 70 1006.0
20180815235120 68 311 0.0 0.0 0.00 0.00 0.00 71 1006.1
20180815233626 68 308 0.0 0.0 0.00 0.00 0.00 71 1006.2
20180815232123 68 347 0.0 0.0 0.00 0.00 0.00 70 1006.5
20180815230614 69 343 0.0 0.0 0.00 0.00 0.00 68 1006.6
20180815225006 68 354 1.0 0.0 0.00 0.00 0.00 70 1006.7
20180815223515 68 354 0.0 0.0 0.00 0.00 0.00 73 1006.7
20180815222011 68 354 0.0 0.0 0.00 0.00 0.00 75 1006.7
20180815220502 68 354 0.0 0.0 0.00 0.00 0.00 76 1006.7
20180815215002 68 354 0.0 0.0 0.00 0.00 1.09 76 1006.6
20180815213510 68 337 0.0 0.0 0.00 0.00 1.09 77 1006.5
20180815212118 69 274 0.0 0.0 0.00 0.00 1.09 76 1006.4
20180815210507 69 246 1.0 0.0 0.00 0.00 1.09 78 1006.6
20180815205010 69 280 1.0 0.0 0.00 0.00 1.09 79 1006.7
20180815203615 69 271 0.0 0.0 0.00 0.00 1.09 81 1006.8
20180815202002 69 329 0.0 0.0 0.00 0.00 1.09 83 1006.8
20180815200508 69 329 0.0 0.0 0.00 0.00 1.09 83 1006.9
20180815194727 69 329 0.0 0.0 0.00 0.00 1.09 83 1006.9
20180815193228 69 329 0.0 0.0 0.00 0.00 1.09 83 1007.2
20180815190224 69 250 1.0 0.0 0.00 0.00 1.09 86 1007.4
20180815184633 70 296 0.0 0.0 0.00 0.00 1.09 88 1007.5
20180815183132 71 347 0.0 0.0 0.00 0.00 1.09 88 1007.1
20180815181617 71 347 0.0 0.0 0.00 0.00 1.09 88 1007.2
20180815180116 70 347 0.0 0.0 0.00 0.00 1.09 88 1006.9
20180815174626 70 347 0.0 0.0 0.00 0.00 1.09 88 1006.5
20180815173129 71 347 0.0 0.0 0.00 0.00 1.09 89 1006.8
20180815171618 71 347 0.0 0.0 0.00 0.00 1.09 89 1006.7
20180815170010 70 347 0.0 0.0 0.00 0.00 1.09 89 1006.5
20180815164612 70 347 0.0 0.0 0.00 0.00 1.09 89 1006.4
20180815163115 70 347 0.0 0.0 0.00 0.00 1.09 88 1006.7
20180815161505 70 347 0.0 0.0 0.00 0.00 1.09 88 1006.8
20180815160007 70 347 0.0 0.0 0.00 0.00 1.09 89 1006.7
20180815154525 70 342 0.0 0.0 0.00 0.00 1.09 90 1006.8
20180815153014 69 346 0.0 0.0 0.00 0.00 1.09 90 1006.7
20180815151505 68 31 0.0 0.0 0.00 0.00 1.09 90 1006.6
20180815145956 66 34 0.0 0.0 0.00 0.00 1.09 89 1006.6
20180815144504 65 353 1.0 0.0 0.00 0.00 1.08 88 1006.9
20180815142718 65 272 0.0 0.0 0.00 0.00 1.08 89 1008.1
20180815141221 65 350 1.0 0.0 0.00 0.00 0.88 86 1007.6